Year,Month,Day,Hour,Minute,Value (Times are PST for insolation in W/m^2)
2017,07,11,00,00,0.00
2017,07,11,00,01,0.00
2017,07,11,00,02,0.00
2017,07,11,00,03,0.00
2017,07,11,00,04,0.00
2017,07,11,00,05,0.00
2017,07,11,00,06,0.00
2017,07,11,00,07,0.00
2017,07,11,00,08,0.00
2017,07,11,00,09,0.00
2017,07,11,00,10,0.00
2017,07,11,00,11,0.00
2017,07,11,00,12,0.00
2017,07,11,00,13,0.00
2017,07,11,00,14,0.00
2017,07,11,00,15,0.00
2017,07,11,00,16,0.00
2017,07,11,00,17,0.00
2017,07,11,00,18,0.00
2017,07,11,00,19,0.00
2017,07,11,00,20,0.00
2017,07,11,00,21,0.00
2017,07,11,00,22,0.00
2017,07,11,00,23,0.00
2017,07,11,00,24,0.00
2017,07,11,00,25,0.00
2017,07,11,00,26,0.00
2017,07,11,00,27,0.00
2017,07,11,00,28,0.00
2017,07,11,00,29,0.00
2017,07,11,00,30,0.00
2017,07,11,00,31,0.00
2017,07,11,00,32,0.00
2017,07,11,00,33,0.00
2017,07,11,00,34,0.00
2017,07,11,00,35,0.00
2017,07,11,00,36,0.00
2017,07,11,00,37,0.00
2017,07,11,00,38,0.00
2017,07,11,00,39,0.00
2017,07,11,00,40,0.00
2017,07,11,00,41,0.00
2017,07,11,00,42,0.00
2017,07,11,00,43,0.00
2017,07,11,00,44,0.00
2017,07,11,00,45,0.00
2017,07,11,00,46,0.00
2017,07,11,00,47,0.00
2017,07,11,00,48,0.00
2017,07,11,00,49,0.00
2017,07,11,00,50,0.00
2017,07,11,00,51,0.00
2017,07,11,00,52,0.00
2017,07,11,00,53,0.00
2017,07,11,00,54,0.00
2017,07,11,00,55,0.00
2017,07,11,00,56,0.00
2017,07,11,00,57,0.00
2017,07,11,00,58,0.00
2017,07,11,00,59,0.00
2017,07,11,01,00,0.00
2017,07,11,01,01,0.00
2017,07,11,01,02,0.00
2017,07,11,01,03,0.00
2017,07,11,01,04,0.00
2017,07,11,01,05,0.00
2017,07,11,01,06,0.00
2017,07,11,01,07,0.00
2017,07,11,01,08,0.00
2017,07,11,01,09,0.00
2017,07,11,01,10,0.00
2017,07,11,01,11,0.00
2017,07,11,01,12,0.00
2017,07,11,01,13,0.00
2017,07,11,01,14,0.00
2017,07,11,01,15,0.00
2017,07,11,01,16,0.00
2017,07,11,01,17,0.00
2017,07,11,01,18,0.00
2017,07,11,01,19,0.00
2017,07,11,01,20,0.00
2017,07,11,01,21,0.00
2017,07,11,01,22,0.00
2017,07,11,01,23,0.00
2017,07,11,01,24,0.00
2017,07,11,01,25,0.00
2017,07,11,01,26,0.00
2017,07,11,01,27,0.00
2017,07,11,01,28,0.00
2017,07,11,01,29,0.00
2017,07,11,01,30,0.00
2017,07,11,01,31,0.00
2017,07,11,01,32,0.00
2017,07,11,01,33,0.00
2017,07,11,01,34,0.00
2017,07,11,01,35,0.00
2017,07,11,01,36,0.00
2017,07,11,01,37,0.00
2017,07,11,01,38,0.00
2017,07,11,01,39,0.00
2017,07,11,01,40,0.00
2017,07,11,01,41,0.00
2017,07,11,01,42,0.00
2017,07,11,01,43,0.00
2017,07,11,01,44,0.00
2017,07,11,01,45,0.00
2017,07,11,01,46,0.00
2017,07,11,01,47,0.00
2017,07,11,01,48,0.00
2017,07,11,01,49,0.00
2017,07,11,01,50,0.00
2017,07,11,01,51,0.00
2017,07,11,01,52,0.00
2017,07,11,01,53,0.00
2017,07,11,01,54,0.00
2017,07,11,01,55,0.00
2017,07,11,01,56,0.00
2017,07,11,01,57,0.00
2017,07,11,01,58,0.00
2017,07,11,01,59,0.00
2017,07,11,02,00,0.00
2017,07,11,02,01,0.00
2017,07,11,02,02,0.00
2017,07,11,02,03,0.00
2017,07,11,02,04,0.00
2017,07,11,02,05,0.00
2017,07,11,02,06,0.00
2017,07,11,02,07,0.00
2017,07,11,02,08,0.00
2017,07,11,02,09,0.00
2017,07,11,02,10,0.00
2017,07,11,02,11,0.00
2017,07,11,02,12,0.00
2017,07,11,02,13,0.00
2017,07,11,02,14,0.00
2017,07,11,02,15,0.00
2017,07,11,02,16,0.00
2017,07,11,02,17,0.00
2017,07,11,02,18,0.00
2017,07,11,02,19,0.00
2017,07,11,02,20,0.00
2017,07,11,02,21,0.00
2017,07,11,02,22,0.00
2017,07,11,02,23,0.00
2017,07,11,02,24,0.00
2017,07,11,02,25,0.00
2017,07,11,02,26,0.00
2017,07,11,02,27,0.00
2017,07,11,02,28,0.00
2017,07,11,02,29,0.00
2017,07,11,02,30,0.00
2017,07,11,02,31,0.00
2017,07,11,02,32,0.00
2017,07,11,02,33,0.00
2017,07,11,02,34,0.00
2017,07,11,02,35,0.00
2017,07,11,02,36,0.00
2017,07,11,02,37,0.00
2017,07,11,02,38,0.00
2017,07,11,02,39,0.00
2017,07,11,02,40,0.00
2017,07,11,02,41,0.00
2017,07,11,02,42,0.00
2017,07,11,02,43,0.00
2017,07,11,02,44,0.00
2017,07,11,02,45,0.00
2017,07,11,02,46,0.00
2017,07,11,02,47,0.00
2017,07,11,02,48,0.00
2017,07,11,02,49,0.00
2017,07,11,02,50,0.00
2017,07,11,02,51,0.00
2017,07,11,02,52,0.00
2017,07,11,02,53,0.00
2017,07,11,02,54,0.00
2017,07,11,02,55,0.00
2017,07,11,02,56,0.00
2017,07,11,02,57,0.00
2017,07,11,02,58,0.00
2017,07,11,02,59,0.00
2017,07,11,03,00,0.00
2017,07,11,03,01,0.00
2017,07,11,03,02,0.00
2017,07,11,03,03,0.00
2017,07,11,03,04,0.00
2017,07,11,03,05,0.00
2017,07,11,03,06,0.00
2017,07,11,03,07,0.00
2017,07,11,03,08,0.00
2017,07,11,03,09,0.00
2017,07,11,03,10,0.00
2017,07,11,03,11,0.00
2017,07,11,03,12,0.00
2017,07,11,03,13,0.00
2017,07,11,03,14,0.00
2017,07,11,03,15,0.00
2017,07,11,03,16,0.00
2017,07,11,03,17,0.00
2017,07,11,03,18,0.00
2017,07,11,03,19,0.00
2017,07,11,03,20,0.00
2017,07,11,03,21,0.00
2017,07,11,03,22,0.00
2017,07,11,03,23,0.00
2017,07,11,03,24,0.00
2017,07,11,03,25,0.00
2017,07,11,03,26,0.00
2017,07,11,03,27,0.00
2017,07,11,03,28,0.00
2017,07,11,03,29,0.00
2017,07,11,03,30,0.00
2017,07,11,03,31,0.00
2017,07,11,03,32,0.00
2017,07,11,03,33,0.00
2017,07,11,03,34,0.00
2017,07,11,03,35,0.00
2017,07,11,03,36,0.00
2017,07,11,03,37,0.00
2017,07,11,03,38,0.00
2017,07,11,03,39,0.00
2017,07,11,03,40,0.00
2017,07,11,03,41,0.00
2017,07,11,03,42,0.00
2017,07,11,03,43,0.00
2017,07,11,03,44,0.00
2017,07,11,03,45,0.00
2017,07,11,03,46,0.00
2017,07,11,03,47,0.00
2017,07,11,03,48,0.00
2017,07,11,03,49,0.00
2017,07,11,03,50,0.00
2017,07,11,03,51,0.00
2017,07,11,03,52,0.00
2017,07,11,03,53,0.00
2017,07,11,03,54,0.00
2017,07,11,03,55,0.00
2017,07,11,03,56,0.00
2017,07,11,03,57,0.00
2017,07,11,03,58,0.00
2017,07,11,03,59,0.00
2017,07,11,04,00,0.00
2017,07,11,04,01,0.00
2017,07,11,04,02,0.00
2017,07,11,04,03,0.00
2017,07,11,04,04,0.00
2017,07,11,04,08,0.00
2017,07,11,04,09,0.00
2017,07,11,04,10,0.00
2017,07,11,04,11,0.00
2017,07,11,04,12,0.00
2017,07,11,04,13,0.00
2017,07,11,04,14,0.00
2017,07,11,04,15,0.00
2017,07,11,04,16,0.00
2017,07,11,04,17,0.00
2017,07,11,04,18,0.00
2017,07,11,04,19,0.00
2017,07,11,04,20,0.00
2017,07,11,04,21,0.00
2017,07,11,04,22,0.00
2017,07,11,04,23,0.00
2017,07,11,04,24,0.00
2017,07,11,04,25,0.00
2017,07,11,04,26,0.00
2017,07,11,04,27,0.00
2017,07,11,04,28,0.00
2017,07,11,04,29,0.00
2017,07,11,04,30,0.00
2017,07,11,04,31,0.00
2017,07,11,04,32,0.00
2017,07,11,04,33,0.00
2017,07,11,04,34,0.00
2017,07,11,04,35,0.00
2017,07,11,04,36,0.00
2017,07,11,04,37,0.00
2017,07,11,04,38,0.00
2017,07,11,04,39,0.00
2017,07,11,04,40,0.00
2017,07,11,04,41,0.00
2017,07,11,04,42,0.00
2017,07,11,04,43,0.00
2017,07,11,04,44,0.00
2017,07,11,04,45,0.00
2017,07,11,04,46,0.00
2017,07,11,04,47,0.00
2017,07,11,04,48,0.00
2017,07,11,04,49,0.00
2017,07,11,04,50,0.00
2017,07,11,04,51,0.00
2017,07,11,04,52,0.00
2017,07,11,04,53,0.00
2017,07,11,04,54,0.00
2017,07,11,04,55,0.00
2017,07,11,04,56,0.00
2017,07,11,04,57,0.00
2017,07,11,04,58,0.00
2017,07,11,04,59,0.00
2017,07,11,05,00,0.00
2017,07,11,05,01,0.00
2017,07,11,05,02,0.00
2017,07,11,05,03,0.00
2017,07,11,05,04,0.00
2017,07,11,05,05,0.00
2017,07,11,05,06,0.00
2017,07,11,05,07,0.00
2017,07,11,05,08,0.00
2017,07,11,05,09,0.00
2017,07,11,05,10,0.00
2017,07,11,05,11,0.00
2017,07,11,05,12,0.00
2017,07,11,05,13,0.00
2017,07,11,05,14,0.00
2017,07,11,05,15,0.00
2017,07,11,05,16,0.00
2017,07,11,05,17,0.00
2017,07,11,05,18,0.00
2017,07,11,05,19,0.00
2017,07,11,05,20,0.00
2017,07,11,05,21,0.00
2017,07,11,05,22,0.00
2017,07,11,05,23,0.00
2017,07,11,05,24,0.00
2017,07,11,05,25,0.00
2017,07,11,05,26,0.20
2017,07,11,05,27,5.00
2017,07,11,05,28,5.00
2017,07,11,05,29,5.00
2017,07,11,05,30,5.00
2017,07,11,05,31,5.00
2017,07,11,05,32,6.50
2017,07,11,05,33,7.00
2017,07,11,05,34,7.00
2017,07,11,05,35,7.00
2017,07,11,05,36,7.00
2017,07,11,05,37,8.10
2017,07,11,05,38,9.00
2017,07,11,05,39,9.00
2017,07,11,05,40,9.10
2017,07,11,05,41,11.00
2017,07,11,05,42,11.00
2017,07,11,05,43,11.00
2017,07,11,05,44,11.00
2017,07,11,05,45,11.70
2017,07,11,05,46,12.00
2017,07,11,05,47,12.00
2017,07,11,05,48,12.00
2017,07,11,05,49,12.70
2017,07,11,05,50,14.00
2017,07,11,05,51,14.00
2017,07,11,05,52,14.00
2017,07,11,05,53,15.70
2017,07,11,05,54,16.00
2017,07,11,05,55,16.00
2017,07,11,05,56,16.00
2017,07,11,05,57,17.00
2017,07,11,05,58,18.00
2017,07,11,05,59,18.00
2017,07,11,06,00,18.00
2017,07,11,06,01,19.00
2017,07,11,06,02,19.00
2017,07,11,06,03,19.00
2017,07,11,06,04,19.00
2017,07,11,06,05,20.20
2017,07,11,06,06,21.00
2017,07,11,06,07,21.00
2017,07,11,06,08,21.00
2017,07,11,06,09,21.00
2017,07,11,06,10,21.80
2017,07,11,06,11,23.00
2017,07,11,06,12,23.00
2017,07,11,06,13,23.00
2017,07,11,06,14,24.80
2017,07,11,06,15,25.00
2017,07,11,06,16,25.00
2017,07,11,06,17,25.00
2017,07,11,06,18,25.60
2017,07,11,06,19,26.00
2017,07,11,06,20,26.00
2017,07,11,06,21,26.00
2017,07,11,06,22,26.30
2017,07,11,06,23,28.00
2017,07,11,06,24,30.10
2017,07,11,06,25,41.00
2017,07,11,06,26,62.70
2017,07,11,06,27,78.50
2017,07,11,06,28,82.90
2017,07,11,06,29,84.30
2017,07,11,06,30,87.10
2017,07,11,06,31,90.40
2017,07,11,06,32,92.20
2017,07,11,06,33,94.40
2017,07,11,06,34,97.40
2017,07,11,06,35,100.00
2017,07,11,06,36,102.60
2017,07,11,06,37,105.60
2017,07,11,06,38,107.80
2017,07,11,06,39,110.10
2017,07,11,06,40,113.10
2017,07,11,06,41,115.60
2017,07,11,06,42,118.20
2017,07,11,06,43,121.50
2017,07,11,06,44,124.50
2017,07,11,06,45,127.40
2017,07,11,06,46,129.20
2017,07,11,06,47,132.90
2017,07,11,06,48,134.90
2017,07,11,06,49,139.00
2017,07,11,06,50,141.20
2017,07,11,06,51,143.50
2017,07,11,06,52,147.00
2017,07,11,06,53,149.80
2017,07,11,06,54,154.00
2017,07,11,06,55,155.90
2017,07,11,06,56,156.90
2017,07,11,06,57,162.30
2017,07,11,06,58,164.50
2017,07,11,06,59,168.00
2017,07,11,07,00,171.00
2017,07,11,07,01,173.50
2017,07,11,07,02,177.50
2017,07,11,07,03,179.30
2017,07,11,07,04,182.10
2017,07,11,07,05,185.40
2017,07,11,07,06,187.10
2017,07,11,07,07,189.30
2017,07,11,07,08,191.60
2017,07,11,07,09,193.10
2017,07,11,07,10,197.30
2017,07,11,07,11,199.30
2017,07,11,07,12,201.50
2017,07,11,07,13,205.00
2017,07,11,07,14,206.60
2017,07,11,07,15,210.20
2017,07,11,07,16,212.90
2017,07,11,07,17,214.30
2017,07,11,07,18,217.20
2017,07,11,07,19,220.40
2017,07,11,07,20,222.10
2017,07,11,07,21,224.40
2017,07,11,07,22,228.20
2017,07,11,07,23,230.10
2017,07,11,07,24,232.80
2017,07,11,07,25,236.30
2017,07,11,07,26,238.00
2017,07,11,07,27,240.10
2017,07,11,07,28,243.10
2017,07,11,07,29,244.00
2017,07,11,07,30,248.00
2017,07,11,07,31,250.20
2017,07,11,07,32,251.60
2017,07,11,07,33,254.70
2017,07,11,07,34,257.50
2017,07,11,07,35,260.70
2017,07,11,07,36,263.70
2017,07,11,07,37,267.00
2017,07,11,07,38,269.50
2017,07,11,07,39,271.40
2017,07,11,07,40,274.00
2017,07,11,07,41,277.20
2017,07,11,07,42,278.80
2017,07,11,07,43,282.40
2017,07,11,07,44,285.30
2017,07,11,07,45,287.20
2017,07,11,07,46,289.50
2017,07,11,07,47,293.00
2017,07,11,07,48,294.60
2017,07,11,07,49,298.00
2017,07,11,07,50,300.70
2017,07,11,07,51,302.60
2017,07,11,07,52,306.80
2017,07,11,07,53,309.00
2017,07,11,07,54,311.10
2017,07,11,07,55,314.30
2017,07,11,07,56,317.40
2017,07,11,07,57,319.70
2017,07,11,07,58,322.40
2017,07,11,07,59,325.50
2017,07,11,08,00,327.80
2017,07,11,08,01,329.50
2017,07,11,08,02,332.70
2017,07,11,08,03,335.60
2017,07,11,08,04,337.90
2017,07,11,08,05,339.60
2017,07,11,08,06,343.60
2017,07,11,08,07,345.40
2017,07,11,08,08,348.20
2017,07,11,08,09,351.30
2017,07,11,08,10,352.80
2017,07,11,08,11,356.70
2017,07,11,08,12,359.20
2017,07,11,08,13,361.10
2017,07,11,08,14,364.80
2017,07,11,08,15,367.70
2017,07,11,08,16,370.30
2017,07,11,08,17,373.50
2017,07,11,08,18,376.10
2017,07,11,08,19,378.40
2017,07,11,08,20,381.00
2017,07,11,08,21,383.90
2017,07,11,08,22,386.10
2017,07,11,08,23,389.00
2017,07,11,08,24,391.70
2017,07,11,08,25,394.10
2017,07,11,08,26,396.80
2017,07,11,08,27,399.70
2017,07,11,08,28,402.30
2017,07,11,08,29,405.20
2017,07,11,08,30,407.50
2017,07,11,08,31,409.60
2017,07,11,08,32,413.20
2017,07,11,08,33,415.40
2017,07,11,08,34,418.10
2017,07,11,08,35,421.00
2017,07,11,08,36,423.20
2017,07,11,08,37,424.80
2017,07,11,08,38,428.40
2017,07,11,08,39,431.30
2017,07,11,08,40,434.00
2017,07,11,08,41,435.50
2017,07,11,08,42,438.50
2017,07,11,08,43,440.20
2017,07,11,08,44,442.50
2017,07,11,08,45,445.70
2017,07,11,08,46,448.20
2017,07,11,08,47,450.60
2017,07,11,08,48,452.80
2017,07,11,08,49,454.50
2017,07,11,08,50,456.30
2017,07,11,08,51,460.20
2017,07,11,08,52,461.90
2017,07,11,08,53,466.30
2017,07,11,08,54,468.20
2017,07,11,08,55,470.60
2017,07,11,08,56,474.00
2017,07,11,08,57,475.60
2017,07,11,08,58,477.50
2017,07,11,08,59,480.00
2017,07,11,09,00,483.00
2017,07,11,09,01,484.20
2017,07,11,09,02,487.80
2017,07,11,09,03,490.60
2017,07,11,09,04,493.30
2017,07,11,09,05,495.60
2017,07,11,09,06,497.00
2017,07,11,09,07,499.60
2017,07,11,09,08,503.30
2017,07,11,09,09,504.90
2017,07,11,09,10,506.00
2017,07,11,09,11,510.10
2017,07,11,09,12,512.80
2017,07,11,09,13,515.10
2017,07,11,09,14,517.40
2017,07,11,09,15,520.10
2017,07,11,09,16,522.90
2017,07,11,09,17,524.00
2017,07,11,09,18,526.10
2017,07,11,09,19,528.70
2017,07,11,09,20,531.20
2017,07,11,09,21,533.20
2017,07,11,09,22,535.50
2017,07,11,09,23,539.00
2017,07,11,09,24,540.60
2017,07,11,09,25,544.00
2017,07,11,09,26,546.70
2017,07,11,09,27,548.00
2017,07,11,09,28,549.00
2017,07,11,09,29,552.70
2017,07,11,09,30,554.50
2017,07,11,09,31,557.50
2017,07,11,09,32,560.50
2017,07,11,09,33,562.70
2017,07,11,09,34,564.30
2017,07,11,09,35,566.50
2017,07,11,09,36,569.20
2017,07,11,09,37,572.00
2017,07,11,09,38,574.30
2017,07,11,09,39,576.50
2017,07,11,09,40,578.00
2017,07,11,09,41,580.30
2017,07,11,09,42,582.50
2017,07,11,09,43,585.10
2017,07,11,09,44,588.10
2017,07,11,09,45,590.90
2017,07,11,09,46,592.00
2017,07,11,09,47,595.60
2017,07,11,09,48,598.20
2017,07,11,09,49,599.70
2017,07,11,09,50,600.10
2017,07,11,09,51,602.30
2017,07,11,09,52,605.70
2017,07,11,09,53,607.60
2017,07,11,09,54,611.90
2017,07,11,09,55,613.40
2017,07,11,09,56,615.00
2017,07,11,09,57,616.80
2017,07,11,09,58,620.10
2017,07,11,09,59,621.70
2017,07,11,10,00,623.60
2017,07,11,10,01,626.00
2017,07,11,10,02,628.20
2017,07,11,10,03,629.60
2017,07,11,10,04,631.90
2017,07,11,10,05,634.10
2017,07,11,10,06,635.00
2017,07,11,10,07,637.40
2017,07,11,10,08,640.10
2017,07,11,10,09,642.20
2017,07,11,10,10,643.80
2017,07,11,10,11,646.00
2017,07,11,10,12,648.20
2017,07,11,10,13,649.80
2017,07,11,10,14,651.70
2017,07,11,10,15,654.00
2017,07,11,10,16,654.70
2017,07,11,10,17,657.70
2017,07,11,10,18,660.00
2017,07,11,10,19,662.30
2017,07,11,10,20,663.70
2017,07,11,10,21,665.70
2017,07,11,10,22,668.30
2017,07,11,10,23,670.20
2017,07,11,10,24,671.80
2017,07,11,10,25,674.00
2017,07,11,10,26,676.40
2017,07,11,10,27,677.00
2017,07,11,10,28,679.70
2017,07,11,10,29,682.30
2017,07,11,10,30,684.00
2017,07,11,10,31,685.20
2017,07,11,10,32,688.10
2017,07,11,10,33,689.00
2017,07,11,10,34,690.60
2017,07,11,10,35,692.90
2017,07,11,10,36,694.30
2017,07,11,10,37,696.50
2017,07,11,10,38,698.80
2017,07,11,10,39,700.00
2017,07,11,10,40,700.70
2017,07,11,10,41,702.50
2017,07,11,10,42,704.90
2017,07,11,10,43,707.90
2017,07,11,10,44,711.40
2017,07,11,10,45,711.00
2017,07,11,10,46,713.10
2017,07,11,10,47,714.70
2017,07,11,10,48,716.60
2017,07,11,10,49,718.90
2017,07,11,10,50,721.00
2017,07,11,10,51,721.30
2017,07,11,10,52,722.90
2017,07,11,10,53,725.20
2017,07,11,10,54,727.40
2017,07,11,10,55,728.80
2017,07,11,10,56,731.10
2017,07,11,10,57,733.00
2017,07,11,10,58,733.70
2017,07,11,10,59,734.00
2017,07,11,11,00,735.40
2017,07,11,11,01,737.70
2017,07,11,11,02,739.60
2017,07,11,11,03,741.90
2017,07,11,11,04,742.50
2017,07,11,11,05,744.30
2017,07,11,11,06,745.00
2017,07,11,11,07,746.20
2017,07,11,11,08,747.00
2017,07,11,11,09,750.40
2017,07,11,11,10,752.00
2017,07,11,11,11,752.50
2017,07,11,11,12,754.70
2017,07,11,11,13,756.00
2017,07,11,11,14,757.30
2017,07,11,11,15,760.30
2017,07,11,11,16,762.80
2017,07,11,11,17,763.30
2017,07,11,11,18,765.00
2017,07,11,11,19,765.40
2017,07,11,11,20,766.00
2017,07,11,11,21,767.30
2017,07,11,11,22,769.50
2017,07,11,11,23,772.70
2017,07,11,11,24,773.30
2017,07,11,11,25,775.00
2017,07,11,11,26,775.80
2017,07,11,11,27,777.00
2017,07,11,11,28,778.30
2017,07,11,11,29,779.80
2017,07,11,11,30,781.80
2017,07,11,11,31,782.30
2017,07,11,11,32,784.00
2017,07,11,11,33,784.80
2017,07,11,11,34,787.70
2017,07,11,11,35,789.00
2017,07,11,11,36,790.60
2017,07,11,11,37,791.10
2017,07,11,11,38,793.40
2017,07,11,11,39,795.30
2017,07,11,11,40,796.90
2017,07,11,11,41,799.10
2017,07,11,11,42,800.00
2017,07,11,11,43,801.70
2017,07,11,11,44,803.00
2017,07,11,11,45,803.70
2017,07,11,11,46,806.30
2017,07,11,11,47,802.60
2017,07,11,11,48,790.90
2017,07,11,11,49,790.50
2017,07,11,11,50,795.40
2017,07,11,11,51,805.70
2017,07,11,11,52,803.70
2017,07,11,11,53,764.70
2017,07,11,11,54,795.00
2017,07,11,11,55,823.00
2017,07,11,11,56,814.50
2017,07,11,11,57,821.50
2017,07,11,11,58,824.20
2017,07,11,11,59,826.00
2017,07,11,12,00,826.70
2017,07,11,12,01,827.10
2017,07,11,12,02,828.40
2017,07,11,12,03,825.50
2017,07,11,12,04,816.80
2017,07,11,12,05,804.80
2017,07,11,12,06,825.90
2017,07,11,12,07,837.00
2017,07,11,12,08,840.00
2017,07,11,12,09,840.00
2017,07,11,12,10,845.20
2017,07,11,12,11,847.00
2017,07,11,12,12,854.30
2017,07,11,12,13,857.00
2017,07,11,12,14,848.40
2017,07,11,12,15,832.50
2017,07,11,12,16,840.10
2017,07,11,12,17,811.50
2017,07,11,12,18,794.30
2017,07,11,12,19,643.70
2017,07,11,12,20,612.00
2017,07,11,12,21,710.60
2017,07,11,12,22,835.50
2017,07,11,12,23,770.00
2017,07,11,12,24,732.70
2017,07,11,12,25,737.40
2017,07,11,12,26,858.50
2017,07,11,12,27,809.90
2017,07,11,12,28,840.30
2017,07,11,12,29,836.50
2017,07,11,12,30,857.30
2017,07,11,12,31,853.80
2017,07,11,12,32,847.00
2017,07,11,12,33,850.10
2017,07,11,12,34,844.00
2017,07,11,12,35,842.70
2017,07,11,12,36,851.30
2017,07,11,12,37,851.70
2017,07,11,12,38,845.00
2017,07,11,12,39,828.90
2017,07,11,12,40,848.70
2017,07,11,12,41,853.70
2017,07,11,12,42,853.00
2017,07,11,12,43,853.00
2017,07,11,12,44,853.00
2017,07,11,12,45,853.00
2017,07,11,12,46,851.00
2017,07,11,12,47,851.50
2017,07,11,12,48,853.40
2017,07,11,12,49,853.50
2017,07,11,12,50,853.60
2017,07,11,12,51,854.00
2017,07,11,12,52,854.00
2017,07,11,12,53,855.70
2017,07,11,12,54,854.50
2017,07,11,12,55,855.20
2017,07,11,12,56,854.00
2017,07,11,12,57,854.00
2017,07,11,12,58,854.00
2017,07,11,12,59,855.70
2017,07,11,13,00,856.00
2017,07,11,13,01,855.50
2017,07,11,13,02,854.00
2017,07,11,13,03,854.00
2017,07,11,13,04,855.30
2017,07,11,13,05,856.00
2017,07,11,13,06,857.70
2017,07,11,13,07,858.00
2017,07,11,13,08,858.00
2017,07,11,13,09,858.80
2017,07,11,13,10,860.50
2017,07,11,13,11,860.30
2017,07,11,13,12,860.00
2017,07,11,13,13,859.90
2017,07,11,13,14,858.00
2017,07,11,13,15,857.40
2017,07,11,13,16,857.70
2017,07,11,13,17,860.00
2017,07,11,13,18,858.70
2017,07,11,13,19,859.60
2017,07,11,13,20,858.30
2017,07,11,13,21,859.60
2017,07,11,13,22,858.90
2017,07,11,13,23,861.00
2017,07,11,13,24,861.00
2017,07,11,13,25,860.30
2017,07,11,13,26,860.00
2017,07,11,13,27,858.20
2017,07,11,13,28,860.00
2017,07,11,13,29,860.00
2017,07,11,13,30,859.00
2017,07,11,13,31,858.00
2017,07,11,13,32,858.00
2017,07,11,13,33,858.00
2017,07,11,13,34,859.70
2017,07,11,13,35,858.40
2017,07,11,13,36,859.30
2017,07,11,13,37,858.00
2017,07,11,13,38,856.80
2017,07,11,13,39,858.90
2017,07,11,13,40,856.50
2017,07,11,13,41,857.70
2017,07,11,13,42,856.50
2017,07,11,13,43,857.20
2017,07,11,13,44,856.00
2017,07,11,13,45,854.80
2017,07,11,13,46,854.00
2017,07,11,13,47,854.00
2017,07,11,13,48,854.00
2017,07,11,13,49,854.50
2017,07,11,13,50,856.00
2017,07,11,13,51,855.00
2017,07,11,13,52,854.00
2017,07,11,13,53,853.20
2017,07,11,13,54,853.90
2017,07,11,13,55,854.00
2017,07,11,13,56,854.00
2017,07,11,13,57,853.60
2017,07,11,13,58,853.00
2017,07,11,13,59,851.70
2017,07,11,14,00,852.60
2017,07,11,14,01,851.20
2017,07,11,14,02,850.70
2017,07,11,14,03,849.00
2017,07,11,14,04,849.00
2017,07,11,14,05,849.00
2017,07,11,14,06,850.30
2017,07,11,14,07,851.00
2017,07,11,14,08,849.10
2017,07,11,14,09,847.00
2017,07,11,14,10,847.60
2017,07,11,14,11,847.60
2017,07,11,14,12,846.00
2017,07,11,14,13,846.70
2017,07,11,14,14,847.00
2017,07,11,14,15,846.70
2017,07,11,14,16,844.40
2017,07,11,14,17,847.00
2017,07,11,14,18,847.80
2017,07,11,14,19,846.00
2017,07,11,14,20,844.60
2017,07,11,14,21,844.00
2017,07,11,14,22,840.60
2017,07,11,14,23,843.60
2017,07,11,14,24,841.30
2017,07,11,14,25,839.00
2017,07,11,14,26,841.90
2017,07,11,14,27,839.50
2017,07,11,14,28,839.70
2017,07,11,14,29,838.10
2017,07,11,14,30,838.50
2017,07,11,14,31,839.00
2017,07,11,14,32,837.50
2017,07,11,14,33,837.40
2017,07,11,14,34,835.50
2017,07,11,14,35,833.20
2017,07,11,14,36,833.20
2017,07,11,14,37,833.80
2017,07,11,14,38,830.40
2017,07,11,14,39,829.50
2017,07,11,14,40,829.20
2017,07,11,14,41,828.50
2017,07,11,14,42,828.00
2017,07,11,14,43,828.00
2017,07,11,14,44,827.50
2017,07,11,14,45,825.20
2017,07,11,14,46,824.00
2017,07,11,14,47,823.30
2017,07,11,14,48,821.50
2017,07,11,14,49,821.00
2017,07,11,14,50,820.70
2017,07,11,14,51,819.00
2017,07,11,14,52,818.20
2017,07,11,14,53,816.50
2017,07,11,14,54,816.00
2017,07,11,14,55,814.50
2017,07,11,14,56,813.80
2017,07,11,14,57,810.00
2017,07,11,14,58,810.00
2017,07,11,14,59,810.00
2017,07,11,15,00,810.00
2017,07,11,15,01,809.30
2017,07,11,15,02,807.40
2017,07,11,15,03,805.10
2017,07,11,15,04,805.00
2017,07,11,15,05,804.30
2017,07,11,15,06,802.50
2017,07,11,15,07,802.00
2017,07,11,15,08,800.60
2017,07,11,15,09,800.00
2017,07,11,15,10,798.10
2017,07,11,15,11,797.50
2017,07,11,15,12,795.00
2017,07,11,15,13,794.00
2017,07,11,15,14,793.00
2017,07,11,15,15,791.70
2017,07,11,15,16,791.00
2017,07,11,15,17,789.00
2017,07,11,15,18,788.00
2017,07,11,15,19,787.40
2017,07,11,15,20,785.00
2017,07,11,15,21,782.90
2017,07,11,15,22,780.50
2017,07,11,15,23,780.00
2017,07,11,15,24,778.90
2017,07,11,15,25,777.00
2017,07,11,15,26,777.00
2017,07,11,15,27,776.00
2017,07,11,15,28,773.80
2017,07,11,15,29,772.30
2017,07,11,15,30,772.00
2017,07,11,15,31,767.70
2017,07,11,15,32,766.00
2017,07,11,15,33,765.60
2017,07,11,15,34,764.00
2017,07,11,15,35,763.00
2017,07,11,15,36,763.00
2017,07,11,15,37,761.20
2017,07,11,15,38,758.80
2017,07,11,15,39,757.40
2017,07,11,15,40,756.00
2017,07,11,15,41,756.00
2017,07,11,15,42,753.30
2017,07,11,15,43,752.00
2017,07,11,15,44,752.00
2017,07,11,15,45,750.20
2017,07,11,15,46,747.00
2017,07,11,15,47,746.10
2017,07,11,15,48,744.50
2017,07,11,15,49,744.00
2017,07,11,15,50,742.40
2017,07,11,15,51,738.40
2017,07,11,15,52,737.80
2017,07,11,15,53,736.40
2017,07,11,15,54,734.10
2017,07,11,15,55,731.90
2017,07,11,15,56,729.60
2017,07,11,15,57,729.00
2017,07,11,15,58,728.00
2017,07,11,15,59,727.50
2017,07,11,16,00,725.40
2017,07,11,16,01,723.10
2017,07,11,16,02,721.50
2017,07,11,16,03,719.70
2017,07,11,16,04,717.40
2017,07,11,16,05,715.00
2017,07,11,16,06,713.20
2017,07,11,16,07,710.00
2017,07,11,16,08,710.00
2017,07,11,16,09,708.80
2017,07,11,16,10,705.90
2017,07,11,16,11,703.30
2017,07,11,16,12,702.80
2017,07,11,16,13,700.80
2017,07,11,16,14,699.30
2017,07,11,16,15,697.00
2017,07,11,16,16,694.80
2017,07,11,16,17,694.00
2017,07,11,16,18,693.10
2017,07,11,16,19,690.80
2017,07,11,16,20,688.50
2017,07,11,16,21,686.60
2017,07,11,16,22,685.00
2017,07,11,16,23,682.80
2017,07,11,16,24,680.60
2017,07,11,16,25,679.10
2017,07,11,16,26,677.00
2017,07,11,16,27,676.10
2017,07,11,16,28,672.10
2017,07,11,16,29,670.50
2017,07,11,16,30,670.00
2017,07,11,16,31,670.00
2017,07,11,16,32,664.50
2017,07,11,16,33,663.60
2017,07,11,16,34,660.50
2017,07,11,16,35,658.20
2017,07,11,16,36,656.50
2017,07,11,16,37,654.70
2017,07,11,16,38,652.40
2017,07,11,16,39,650.00
2017,07,11,16,40,648.70
2017,07,11,16,41,646.50
2017,07,11,16,42,644.10
2017,07,11,16,43,642.40
2017,07,11,16,44,639.20
2017,07,11,16,45,638.00
2017,07,11,16,46,635.10
2017,07,11,16,47,633.00
2017,07,11,16,48,631.70
2017,07,11,16,49,628.50
2017,07,11,16,50,626.80
2017,07,11,16,51,624.60
2017,07,11,16,52,622.30
2017,07,11,16,53,620.90
2017,07,11,16,54,618.50
2017,07,11,16,55,616.40
2017,07,11,16,56,613.60
2017,07,11,16,57,612.00
2017,07,11,16,58,609.10
2017,07,11,16,59,606.30
2017,07,11,17,00,604.90
2017,07,11,17,01,602.50
2017,07,11,17,02,600.00
2017,07,11,17,03,598.00
2017,07,11,17,04,596.80
2017,07,11,17,05,593.10
2017,07,11,17,06,591.10
2017,07,11,17,07,588.80
2017,07,11,17,08,586.50
2017,07,11,17,09,584.60